Weather History for KBOW - August, 2013

Change the Weather History Date:

Friday, August 2, 2013

  Actual Average Record
Temperature  
Mean Temperature 81 °F -  
Max Temperature 91 °F 91 °F 96 °F (1951)
Min Temperature 71 °F 72 °F 67 °F (1961)
Cooling Degree Days 16    
Growing Degree Days 31 (Base 50)    
Moisture  
Dew Point 73 °F    
Average Humidity 82    
Maximum Humidity 100    
Minimum Humidity 46    
Precipitation  
Precipitation 0.25 in - - ()
Sea Level Pressure  
Sea Level Pressure 30.01 in    
Wind  
Wind Speed 2 mph (NNW)    
Max Wind Speed 21 mph    
Max Gust Speed 25 mph    
Visibility 8 miles    
Events Rain , Thunderstorm    
Averages and records for this station are not official NWS values.
T = Trace of Precipitation, MM = Missing Value Source: NWS Daily Summary

Daily Weather History Graph

Daily Weather History Graph

Search for Another Location

Airport or City:

Trip Planner

Search our weather history database for the weather conditions in past years. The results will help you decide how hot, cold, wet, or windy it might be!

Date:

Astronomy

Aug. 02, 2013 Rise Set
Actual Time 6:50 AM EDT 8:15 PM EDT
Civil Twilight 6:25 AM EDT 8:41 PM EDT
Nautical Twilight 5:55 AM EDT 9:11 PM EDT
Astronomical Twilight 5:23 AM EDT 9:42 PM EDT
Moon 3:14 AM EDT 5:08 PM EDT
Length of Visible Light 14h 15m
Length of Day
13h 25m
Waning Crescent, 16% of the Moon is Illuminated
Aug 2
Waning Crescent
Aug 6
New
Aug 14
First Quarter
Aug 20
Full
Aug 28
Last Quarter

Hourly Weather History & Observations

Time (EDT) Temp. Heat Index Dew Point Humidity Pressure Visibility Wind Dir Wind Speed Gust Speed Precip Events Conditions
12:15 AM 73.4 °F - - N/A% 30.01 in 7.0 mi Calm Calm - N/A   Clear
12:35 AM 73.4 °F - - N/A% 30.02 in 10.0 mi Calm Calm - N/A   Clear
12:55 AM 73.4 °F - - N/A% 30.01 in 9.0 mi Calm Calm - N/A   Clear
1:15 AM 73.4 °F - - N/A% 30.01 in 10.0 mi Calm Calm - N/A   Clear
1:35 AM 73.4 °F - 73.4 °F 100% 30.01 in 10.0 mi Calm Calm - N/A   Clear
1:55 AM 73.4 °F - - N/A% 30.00 in 7.0 mi Calm Calm - N/A   Clear
2:15 AM 73.4 °F - - N/A% 30.00 in 9.0 mi Calm Calm - N/A   Clear
2:55 AM 73.4 °F - - N/A% 29.99 in 6.0 mi Calm Calm - N/A   Haze
3:15 AM 73.4 °F - - N/A% 29.99 in 10.0 mi Calm Calm - N/A   Clear
3:35 AM 71.6 °F - - N/A% 29.99 in 9.0 mi Calm Calm - N/A   Clear
3:55 AM 73.4 °F - - N/A% 29.99 in 9.0 mi NE 4.6 mph - N/A   Clear
4:15 AM 73.4 °F - - N/A% 29.98 in 8.0 mi Calm Calm - N/A   Clear
4:35 AM 73.4 °F - - N/A% 29.98 in 8.0 mi Calm Calm - N/A   Clear
4:55 AM 73.4 °F - - N/A% 29.97 in 9.0 mi Calm Calm - N/A   Clear
5:15 AM 73.4 °F - - N/A% 29.97 in 8.0 mi Calm Calm - N/A   Clear
5:35 AM 73.4 °F - - N/A% 29.98 in 8.0 mi Calm Calm - N/A   Clear
5:55 AM 73.4 °F - - N/A% 29.98 in 9.0 mi Calm Calm - N/A   Clear
6:15 AM 71.6 °F - - N/A% 29.99 in 8.0 mi Calm Calm - N/A   Clear
6:35 AM 71.6 °F - - N/A% 29.98 in 8.0 mi Calm Calm - N/A   Clear
6:55 AM 71.6 °F - - N/A% 29.99 in 7.0 mi Calm Calm - N/A   Clear
7:48 AM 73.4 °F - - N/A% 30.00 in 7.0 mi Calm Calm - N/A   Scattered Clouds
8:50 AM 78.8 °F - 77.0 °F 94% 30.01 in 7.0 mi Calm Calm - N/A   Partly Cloudy
9:47 AM 80.6 °F 85.4 °F 73.4 °F 79% 30.03 in 7.0 mi Calm Calm - N/A   Partly Cloudy
10:47 AM 82.4 °F 87.2 °F 71.6 °F 70% 30.05 in 7.0 mi Calm Calm - N/A   Scattered Clouds
11:50 AM 84.2 °F 88.4 °F 69.8 °F 62% 30.05 in 7.0 mi Variable 3.5 mph - N/A   Scattered Clouds
12:50 PM 86.0 °F 90.4 °F 69.8 °F 58% 30.05 in 7.0 mi Variable 5.8 mph - N/A   Scattered Clouds
1:47 PM 87.8 °F 93.8 °F 71.6 °F 58% 30.03 in 7.0 mi Variable 4.6 mph - N/A   Scattered Clouds
2:47 PM 89.6 °F 96.2 °F 71.6 °F 55% 30.02 in 7.0 mi ENE 5.8 mph - N/A   Mostly Cloudy
3:35 PM 89.6 °F 94.7 °F 69.8 °F 52% 30.00 in 9.0 mi ENE 4.6 mph - N/A   Scattered Clouds
3:55 PM 87.8 °F 93.8 °F 71.6 °F 58% 29.99 in 9.0 mi NE 5.8 mph - N/A   Partly Cloudy
4:15 PM 89.6 °F 94.7 °F 69.8 °F 52% 29.99 in 7.0 mi NNE 5.8 mph - N/A   Clear
4:35 PM 89.6 °F 94.7 °F 69.8 °F 52% 29.98 in 8.0 mi NE 4.6 mph - N/A Thunderstorm Partly Cloudy
4:55 PM 91.4 °F 95.4 °F 68.0 °F 46% 29.98 in 7.0 mi NNE 4.6 mph - N/A Thunderstorm Clear
5:15 PM 89.6 °F 94.7 °F 69.8 °F 52% 29.98 in 6.0 mi Calm Calm - N/A Thunderstorm Haze
5:35 PM 84.2 °F 89.6 °F 71.6 °F 66% 29.99 in 8.0 mi SW 16.1 mph 20.7 mph N/A Thunderstorm Mostly Cloudy
5:55 PM 80.6 °F 83.9 °F 69.8 °F 70% 29.99 in 9.0 mi West 11.5 mph - N/A Thunderstorm Overcast
6:15 PM 77.0 °F - 75.2 °F 94% 29.99 in - West 20.7 mph 25.3 mph 0.20 in Rain , Thunderstorm Heavy Thunderstorms and Rain
6:35 PM 75.2 °F - 75.2 °F 100% 29.98 in 6.0 mi WSW 11.5 mph - 0.25 in Thunderstorm Scattered Clouds
6:55 PM 77.0 °F - 73.4 °F 89% 30.00 in 9.0 mi WSW 3.5 mph - 0.25 in Thunderstorm Thunderstorm
7:15 PM 77.0 °F - 73.4 °F 89% 30.02 in 7.0 mi Calm Calm - N/A Thunderstorm Mostly Cloudy
7:35 PM 75.2 °F - 73.4 °F 94% 30.02 in 8.0 mi SE 6.9 mph - N/A Thunderstorm Mostly Cloudy
7:55 PM 75.2 °F - 75.2 °F 100% 30.03 in 8.0 mi Calm Calm - N/A Thunderstorm Partly Cloudy
8:15 PM 75.2 °F - 75.2 °F 100% 30.03 in 9.0 mi SSE 4.6 mph - N/A Thunderstorm Partly Cloudy
8:35 PM 75.2 °F - 75.2 °F 100% 30.06 in 9.0 mi NE 4.6 mph - N/A Thunderstorm Thunderstorm
8:55 PM 75.2 °F - 73.4 °F 94% 30.05 in 10.0 mi Calm Calm - N/A   Partly Cloudy
9:15 PM 75.2 °F - 75.2 °F 100% 30.05 in 9.0 mi Calm Calm - N/A   Partly Cloudy
9:35 PM 75.2 °F - 75.2 °F 100% 30.06 in 10.0 mi Calm Calm - N/A   Partly Cloudy
9:55 PM 75.2 °F - 75.2 °F 100% 30.06 in 9.0 mi Calm Calm - N/A   Mostly Cloudy
10:15 PM 75.2 °F - 75.2 °F 100% 30.07 in 10.0 mi Calm Calm - N/A   Mostly Cloudy
10:35 PM 75.2 °F - 75.2 °F 100% 30.07 in 9.0 mi WSW 8.1 mph - N/A   Scattered Clouds
10:55 PM 75.2 °F - 75.2 °F 100% 30.07 in 10.0 mi SW 4.6 mph - N/A   Clear
11:15 PM 75.2 °F - 75.2 °F 100% 30.06 in 8.0 mi WSW 3.5 mph - N/A   Clear
11:35 PM 75.2 °F - 75.2 °F 100% 30.06 in 7.0 mi Calm Calm - N/A   Clear
11:55 PM 75.2 °F - 75.2 °F 100% 30.07 in 8.0 mi Calm Calm - N/A   Clear